ARG7406 SAEZ-LEMD

Flight info

Callsign ARG7406
Flight time N/A
Altitude FL350
Route KUKE1A KUKEN UM654 DOTKU FLZ ENVAN UZ18 ARTIG UN866 TENPA N866 APASO N871 GDV N858 VASTO UN858 PESAS N858 PARKA Z165 SOTUK
Aircraft B789/H-SDE1E2E3FGHIJ2J3J4J5M1RWXY/LB1D1

Departure

Time 2026-05-04 02:23
Airport Ezeiza International Airport - Ministro Pistarini (SAEZ)

Arrival

Time N/A
Airport Adolfo Suárez Madrid–Barajas Airport (LEMD)
Time Latitude Longitude Altitude Speed Heading
2026-05-04 02:10 -34.81683 -58.54162 80 ft 0 kts 12°
2026-05-04 02:13 -34.81691 -58.54164 80 ft 4 kts 12°
2026-05-04 02:13 -34.81717 -58.54171 86 ft 4 kts 14°
2026-05-04 02:14 -34.81743 -58.54180 86 ft 4 kts 14°
2026-05-04 02:14 -34.81766 -58.54186 86 ft 4 kts 354°
2026-05-04 02:14 -34.81784 -58.54174 86 ft 4 kts 290°
2026-05-04 02:14 -34.81790 -58.54144 86 ft 2 kts 280°
2026-05-04 02:15 -34.81791 -58.54137 86 ft 0 kts 280°
2026-05-04 02:18 -34.81790 -58.54144 86 ft 2 kts 280°
2026-05-04 02:18 -34.81786 -58.54167 86 ft 4 kts 280°
2026-05-04 02:18 -34.81781 -58.54206 86 ft 6 kts 277°
2026-05-04 02:19 -34.81775 -58.54261 83 ft 7 kts 277°
2026-05-04 02:19 -34.81768 -58.54329 84 ft 9 kts 277°
2026-05-04 02:19 -34.81759 -58.54411 82 ft 11 kts 278°
2026-05-04 02:19 -34.81753 -58.54511 84 ft 14 kts 268°
2026-05-04 02:20 -34.81772 -58.54642 82 ft 18 kts 258°
2026-05-04 02:20 -34.81771 -58.54807 82 ft 22 kts 282°
2026-05-04 02:20 -34.81736 -58.54998 80 ft 25 kts 282°
2026-05-04 02:20 -34.81699 -58.55200 83 ft 18 kts 281°
2026-05-04 02:21 -34.81718 -58.55305 85 ft 11 kts 231°
2026-05-04 02:21 -34.81782 -58.55336 86 ft 10 kts 178°
2026-05-04 02:21 -34.81841 -58.55310 85 ft 9 kts 150°
2026-05-04 02:21 -34.81889 -58.55263 88 ft 9 kts 134°
2026-05-04 02:22 -34.81927 -58.55200 87 ft 9 kts 118°
2026-05-04 02:22 -34.81936 -58.55165 87 ft 0 kts 103°
2026-05-04 02:22 -34.81936 -58.55164 87 ft 3 kts 102°
2026-05-04 02:22 -34.81976 -58.54929 86 ft 60 kts 101°
2026-05-04 02:23 -34.82111 -58.54182 91 ft 120 kts 102°
2026-05-04 02:23 -34.82330 -58.52966 92 ft 172 kts 102°
2026-05-04 02:23 -34.82658 -58.51473 619 ft 178 kts 108°
2026-05-04 02:23 -34.83123 -58.50155 1514 ft 168 kts 108°
2026-05-04 02:24 -34.83656 -58.48763 1713 ft 197 kts 108°
2026-05-04 02:24 -34.84262 -58.47143 2011 ft 224 kts 108°
2026-05-04 02:24 -34.84914 -58.45312 2407 ft 246 kts 104°
2026-05-04 02:24 -34.84903 -58.43303 3081 ft 236 kts 63°
2026-05-04 02:25 -34.83863 -58.41767 3549 ft 247 kts 25°
2026-05-04 02:25 -34.82208 -58.41237 4270 ft 250 kts
2026-05-04 02:25 -34.80485 -58.40719 5141 ft 260 kts 13°
2026-05-04 02:25 -34.78731 -58.40085 6028 ft 266 kts 11°
2026-05-04 02:26 -34.76924 -58.39519 6874 ft 271 kts
2026-05-04 02:26 -34.75076 -58.38978 7717 ft 276 kts
2026-05-04 02:26 -34.73194 -58.38410 8540 ft 283 kts 10°
2026-05-04 02:26 -34.71440 -58.37869 9335 ft 288 kts 10°
2026-05-04 02:27 -34.69482 -58.37266 10140 ft 293 kts 10°
2026-05-04 02:27 -34.67427 -58.36644 10459 ft 319 kts 10°
2026-05-04 02:27 -34.65187 -58.35965 10637 ft 346 kts 11°
2026-05-04 02:27 -34.62824 -58.35237 11320 ft 353 kts 11°
2026-05-04 02:28 -34.60428 -58.34501 12077 ft 359 kts 11°
2026-05-04 02:28 -34.57992 -58.33762 12813 ft 364 kts 10°
2026-05-04 02:28 -34.55521 -58.33012 13558 ft 370 kts 11°
2026-05-04 02:28 -34.53009 -58.32247 14245 ft 375 kts 10°
2026-05-04 02:29 -34.50473 -58.31473 14947 ft 379 kts 10°
2026-05-04 02:29 -34.47907 -58.30694 15625 ft 383 kts 10°
2026-05-04 02:29 -34.45314 -58.29907 16330 ft 386 kts
2026-05-04 02:29 -34.42699 -58.29113 17004 ft 390 kts
2026-05-04 02:30 -34.40056 -58.28312 17669 ft 394 kts
2026-05-04 02:30 -34.37388 -58.27503 18336 ft 398 kts
2026-05-04 02:30 -34.34750 -58.26704 18855 ft 402 kts
2026-05-04 02:30 -34.32026 -58.25879 19411 ft 406 kts
2026-05-04 02:31 -34.29274 -58.25046 19936 ft 411 kts
2026-05-04 02:31 -34.26494 -58.24206 20468 ft 415 kts
2026-05-04 02:31 -34.23687 -58.23358 20984 ft 419 kts
2026-05-04 02:31 -34.20853 -58.22500 21471 ft 423 kts
2026-05-04 02:32 -34.18068 -58.21233 21941 ft 436 kts 22°
2026-05-04 02:32 -34.15475 -58.19257 22428 ft 447 kts 31°
2026-05-04 02:32 -34.12951 -58.17049 22866 ft 451 kts 31°
2026-05-04 02:32 -34.10406 -58.14809 23331 ft 456 kts 31°
2026-05-04 02:33 -34.07845 -58.12550 23767 ft 459 kts 31°
2026-05-04 02:33 -34.05256 -58.10279 24188 ft 462 kts 31°
2026-05-04 02:33 -34.02655 -58.08003 24604 ft 464 kts 31°
2026-05-04 02:33 -34.00044 -58.05717 25003 ft 466 kts 31°
2026-05-04 02:34 -33.97421 -58.03418 25404 ft 469 kts 31°
2026-05-04 02:34 -33.94783 -58.01110 25809 ft 471 kts 31°
2026-05-04 02:34 -33.92131 -57.98794 26180 ft 473 kts 31°
2026-05-04 02:34 -33.89466 -57.96468 26563 ft 475 kts 31°
2026-05-04 02:35 -33.86789 -57.94131 26929 ft 477 kts 31°
2026-05-04 02:35 -33.84101 -57.91787 27288 ft 480 kts 31°
2026-05-04 02:35 -33.81398 -57.89432 27649 ft 482 kts 31°
2026-05-04 02:35 -33.78682 -57.87069 28006 ft 484 kts 31°
2026-05-04 02:36 -33.75953 -57.84694 28351 ft 486 kts 31°
2026-05-04 02:36 -33.73211 -57.82311 28681 ft 489 kts 31°
2026-05-04 02:36 -33.70454 -57.79918 29018 ft 491 kts 31°
2026-05-04 02:36 -33.67687 -57.77517 29347 ft 493 kts 31°
2026-05-04 02:37 -33.64908 -57.75107 29652 ft 495 kts 31°
2026-05-04 02:37 -33.62114 -57.72687 29965 ft 497 kts 31°
2026-05-04 02:37 -33.59309 -57.70258 30244 ft 499 kts 31°
2026-05-04 02:37 -33.56493 -57.67822 30492 ft 502 kts 31°
2026-05-04 02:38 -33.53659 -57.65372 30716 ft 504 kts 31°
2026-05-04 02:38 -33.50815 -57.62916 30947 ft 506 kts 31°
2026-05-04 02:38 -33.47960 -57.60452 31178 ft 508 kts 31°
2026-05-04 02:38 -33.45093 -57.57980 31399 ft 510 kts 31°
2026-05-04 02:39 -33.42212 -57.55499 31616 ft 512 kts 31°
2026-05-04 02:39 -33.39319 -57.53008 31837 ft 514 kts 31°
2026-05-04 02:39 -33.36413 -57.50509 32038 ft 516 kts 31°
2026-05-04 02:39 -33.33496 -57.48003 32245 ft 518 kts 31°
2026-05-04 02:40 -33.30572 -57.45491 32448 ft 520 kts 31°
2026-05-04 02:40 -33.27632 -57.42970 32645 ft 522 kts 31°
2026-05-04 02:40 -33.24683 -57.40442 32837 ft 524 kts 31°
2026-05-04 02:40 -33.21724 -57.37908 33010 ft 526 kts 31°
2026-05-04 02:41 -33.18751 -57.35363 33209 ft 527 kts 31°
2026-05-04 02:41 -33.15771 -57.32816 33380 ft 529 kts 31°
2026-05-04 02:41 -33.12777 -57.30259 33561 ft 531 kts 31°
2026-05-04 02:41 -33.09776 -57.27698 33730 ft 533 kts 31°
2026-05-04 02:42 -33.06765 -57.25130 33895 ft 534 kts 31°
2026-05-04 02:42 -33.03744 -57.22555 34046 ft 536 kts 31°
2026-05-04 02:42 -33.00711 -57.19974 34198 ft 537 kts 31°
2026-05-04 02:42 -32.97671 -57.17388 34345 ft 539 kts 31°
2026-05-04 02:43 -32.94626 -57.14800 34525 ft 539 kts 31°
2026-05-04 02:43 -32.91579 -57.12213 34731 ft 539 kts 31°
2026-05-04 02:43 -32.88535 -57.09630 34948 ft 538 kts 31°
2026-05-04 02:43 -32.85492 -57.07051 35083 ft 540 kts 31°
2026-05-04 02:44 -32.79365 -57.01864 35069 ft 540 kts 31°
2026-05-04 02:44 -32.73272 -56.96714 35075 ft 538 kts 31°
2026-05-04 02:45 -32.67184 -56.91580 35076 ft 538 kts 31°
2026-05-04 02:45 -32.61098 -56.86453 35078 ft 538 kts 31°
2026-05-04 02:46 -32.55006 -56.81332 35080 ft 538 kts 31°
2026-05-04 02:46 -32.48909 -56.76216 35082 ft 538 kts 31°
2026-05-04 02:47 -32.42806 -56.71105 35084 ft 538 kts 31°
2026-05-04 02:47 -32.36704 -56.66003 35085 ft 538 kts 31°
2026-05-04 02:48 -32.30599 -56.60907 35093 ft 538 kts 31°
2026-05-04 02:48 -32.24493 -56.55819 35090 ft 538 kts 31°
2026-05-04 02:49 -32.18379 -56.50733 35081 ft 538 kts 31°
2026-05-04 02:49 -32.12266 -56.45656 35088 ft 539 kts 31°
2026-05-04 02:50 -32.06151 -56.40583 35089 ft 538 kts 31°
2026-05-04 02:50 -32.00048 -56.35530 35087 ft 537 kts 31°
2026-05-04 02:51 -31.93944 -56.30484 35094 ft 537 kts 31°
2026-05-04 02:51 -31.87839 -56.25445 35099 ft 537 kts 31°
2026-05-04 02:52 -31.81737 -56.20417 35093 ft 536 kts 31°
2026-05-04 02:52 -31.75635 -56.15398 35094 ft 536 kts 31°
2026-05-04 02:53 -31.69536 -56.10389 35094 ft 536 kts 32°
2026-05-04 02:53 -31.63434 -56.05387 35100 ft 537 kts 32°
2026-05-04 02:54 -31.57322 -56.00383 35099 ft 537 kts 32°
2026-05-04 02:54 -31.51201 -55.95379 35097 ft 538 kts 32°
2026-05-04 02:55 -31.42018 -55.87887 35102 ft 537 kts 32°
2026-05-04 02:56 -31.35897 -55.82904 35100 ft 537 kts 32°
2026-05-04 02:56 -31.29772 -55.77925 35101 ft 537 kts 32°
2026-05-04 02:57 -31.23657 -55.72962 35099 ft 536 kts 32°
2026-05-04 02:57 -31.17540 -55.68006 35098 ft 537 kts 32°
2026-05-04 02:58 -31.11408 -55.63045 35102 ft 537 kts 32°
2026-05-04 02:58 -31.05273 -55.58090 35101 ft 537 kts 32°
2026-05-04 02:59 -30.99137 -55.53142 35103 ft 538 kts 32°
2026-05-04 02:59 -30.92989 -55.48192 35098 ft 539 kts 32°
2026-05-04 03:00 -30.86840 -55.43232 35102 ft 539 kts 32°
2026-05-04 03:00 -30.80679 -55.38278 35102 ft 539 kts 32°
2026-05-04 03:01 -30.74517 -55.33327 35106 ft 540 kts 32°
2026-05-04 03:01 -30.68347 -55.28379 35099 ft 540 kts 32°
2026-05-04 03:02 -30.62175 -55.23436 35096 ft 541 kts 32°
2026-05-04 03:02 -30.55991 -55.18492 35107 ft 541 kts 32°
2026-05-04 03:03 -30.49810 -55.13518 35106 ft 542 kts 32°
2026-05-04 03:03 -30.43640 -55.08519 35108 ft 542 kts 32°
2026-05-04 03:04 -30.37462 -55.03555 35102 ft 542 kts 32°
2026-05-04 03:04 -30.31291 -54.98580 35098 ft 541 kts 32°
2026-05-04 03:05 -30.25122 -54.93630 35095 ft 541 kts 32°
2026-05-04 03:05 -30.18948 -54.88675 35089 ft 542 kts 32°
2026-05-04 03:06 -30.12764 -54.83725 35087 ft 542 kts 32°
2026-05-04 03:06 -30.06583 -54.78781 35089 ft 541 kts 32°
2026-05-04 03:07 -30.00400 -54.73847 35087 ft 542 kts 32°
2026-05-04 03:07 -29.94216 -54.68916 35083 ft 542 kts 32°
2026-05-04 03:08 -29.88026 -54.63991 35085 ft 542 kts 32°
2026-05-04 03:08 -29.81832 -54.59068 35088 ft 542 kts 32°
2026-05-04 03:09 -29.75628 -54.54146 35085 ft 543 kts 32°
2026-05-04 03:09 -29.69418 -54.49226 35084 ft 543 kts 32°
2026-05-04 03:10 -29.63203 -54.44310 35084 ft 544 kts 32°
2026-05-04 03:10 -29.56982 -54.39397 35086 ft 544 kts 32°
2026-05-04 03:11 -29.50756 -54.34487 35087 ft 544 kts 32°
2026-05-04 03:11 -29.44531 -54.29585 35087 ft 543 kts 31°
2026-05-04 03:12 -29.38319 -54.24701 35091 ft 543 kts 31°
2026-05-04 03:12 -29.32101 -54.19820 35084 ft 543 kts 31°
2026-05-04 03:13 -29.25882 -54.14946 35084 ft 543 kts 31°
2026-05-04 03:13 -29.19656 -54.10072 35087 ft 543 kts 31°
2026-05-04 03:14 -29.13433 -54.05209 35087 ft 543 kts 31°
2026-05-04 03:14 -29.07491 -54.00572 35086 ft 542 kts 31°
2026-05-04 03:15 -29.01238 -53.95701 35090 ft 546 kts 31°
2026-05-04 03:15 -28.94983 -53.90832 35090 ft 545 kts 31°
2026-05-04 03:16 -28.88726 -53.85972 35088 ft 545 kts 31°
2026-05-04 03:16 -28.82467 -53.81116 35082 ft 545 kts 31°
2026-05-04 03:17 -28.76200 -53.76262 35083 ft 546 kts 31°
2026-05-04 03:17 -28.69932 -53.71414 35081 ft 546 kts 31°
2026-05-04 03:18 -28.63661 -53.66570 35075 ft 545 kts 31°
2026-05-04 03:18 -28.57397 -53.61740 35075 ft 545 kts 31°
2026-05-04 03:19 -28.51129 -53.56914 35071 ft 545 kts 30°
2026-05-04 03:19 -28.44866 -53.52097 35081 ft 544 kts 30°
2026-05-04 03:20 -28.38609 -53.47293 35076 ft 544 kts 30°
2026-05-04 03:20 -28.32354 -53.42497 35081 ft 544 kts 30°
2026-05-04 03:21 -28.26094 -53.37705 35073 ft 544 kts 30°
2026-05-04 03:21 -28.19838 -53.32922 35077 ft 543 kts 30°
2026-05-04 03:22 -28.13574 -53.28140 35071 ft 544 kts 30°
2026-05-04 03:22 -28.07302 -53.23359 35069 ft 545 kts 30°
2026-05-04 03:23 -28.01023 -53.18579 35066 ft 545 kts 30°
2026-05-04 03:23 -27.94741 -53.13804 35070 ft 545 kts 30°
2026-05-04 03:24 -27.88456 -53.09034 35072 ft 545 kts 30°
2026-05-04 03:24 -27.82175 -53.04273 35069 ft 545 kts 30°
2026-05-04 03:25 -27.75895 -52.99519 35072 ft 545 kts 29°
2026-05-04 03:25 -27.69609 -52.94768 35067 ft 545 kts 29°
2026-05-04 03:26 -27.63294 -52.90095 35068 ft 544 kts 28°
2026-05-04 03:26 -27.56970 -52.85446 35071 ft 544 kts 29°
2026-05-04 03:27 -27.50466 -52.81277 35100 ft 533 kts 13°
2026-05-04 03:27 -27.43514 -52.78445 35101 ft 533 kts 14°
2026-05-04 03:28 -27.36552 -52.75612 35109 ft 533 kts 14°
2026-05-04 03:28 -27.29593 -52.72782 35120 ft 533 kts 13°
2026-05-04 03:29 -27.22644 -52.69964 35137 ft 532 kts 13°
2026-05-04 03:29 -27.15695 -52.67122 35137 ft 535 kts 18°
2026-05-04 03:29 -27.12372 -52.65193 35152 ft 544 kts 29°
2026-05-04 03:30 -27.09284 -52.62715 35145 ft 548 kts 32°
2026-05-04 03:30 -27.03172 -52.57627 35142 ft 548 kts 32°
2026-05-04 03:31 -26.97060 -52.52542 35121 ft 548 kts 31°
2026-05-04 03:31 -26.90953 -52.47476 35111 ft 547 kts 32°
2026-05-04 03:32 -26.84856 -52.42417 35099 ft 546 kts 31°
2026-05-04 03:32 -26.78764 -52.37375 35098 ft 545 kts 31°
2026-05-04 03:33 -26.72683 -52.32345 35099 ft 545 kts 31°
2026-05-04 03:33 -26.66594 -52.27319 35107 ft 545 kts 31°
2026-05-04 03:34 -26.60505 -52.22296 35111 ft 545 kts 31°
2026-05-04 03:34 -26.54417 -52.17283 35130 ft 545 kts 31°
2026-05-04 03:35 -26.48327 -52.12275 35130 ft 544 kts 31°
2026-05-04 03:35 -26.42239 -52.07274 35124 ft 545 kts 31°
2026-05-04 03:36 -26.36143 -52.02275 35129 ft 545 kts 31°
2026-05-04 03:36 -26.30047 -51.97282 35137 ft 545 kts 31°
2026-05-04 03:37 -26.23953 -51.92296 35140 ft 545 kts 31°
2026-05-04 03:37 -26.17853 -51.87313 35140 ft 545 kts 30°
2026-05-04 03:38 -26.11753 -51.82336 35140 ft 544 kts 31°
2026-05-04 03:38 -26.05661 -51.77373 35145 ft 544 kts 30°
2026-05-04 03:39 -25.99562 -51.72416 35148 ft 544 kts 30°
2026-05-04 03:39 -25.93463 -51.67461 35148 ft 544 kts 30°
2026-05-04 03:40 -25.87362 -51.62512 35154 ft 544 kts 30°
2026-05-04 03:40 -25.81259 -51.57568 35152 ft 544 kts 30°
2026-05-04 03:41 -25.75156 -51.52630 35155 ft 543 kts 30°
2026-05-04 03:41 -25.69061 -51.47706 35153 ft 543 kts 30°
2026-05-04 03:42 -25.62968 -51.42790 35152 ft 543 kts 30°
2026-05-04 03:42 -25.56821 -51.37983 35188 ft 538 kts 26°
2026-05-04 03:43 -25.50540 -51.33471 35154 ft 540 kts 27°
2026-05-04 03:43 -25.44255 -51.28962 35179 ft 539 kts 26°
2026-05-04 03:44 -25.37965 -51.24464 35177 ft 540 kts 26°
2026-05-04 03:44 -25.31682 -51.19964 35175 ft 539 kts 26°
2026-05-04 03:45 -25.25402 -51.15467 35165 ft 539 kts 27°
2026-05-04 03:45 -25.19139 -51.10943 35164 ft 539 kts 26°
2026-05-04 03:46 -25.12863 -51.06445 35168 ft 539 kts 27°
2026-05-04 03:46 -25.06594 -51.01938 35166 ft 539 kts 26°
2026-05-04 03:47 -25.00306 -50.97449 35166 ft 541 kts 26°
2026-05-04 03:47 -24.94004 -50.92978 35161 ft 539 kts 26°
2026-05-04 03:48 -24.87722 -50.88511 35162 ft 538 kts 26°
2026-05-04 03:48 -24.81431 -50.84055 35167 ft 539 kts 26°
2026-05-04 03:49 -24.75140 -50.79597 35166 ft 539 kts 26°
2026-05-04 03:49 -24.68843 -50.75143 35162 ft 539 kts 26°
2026-05-04 03:50 -24.62553 -50.70698 35168 ft 538 kts 26°
2026-05-04 03:50 -24.56258 -50.66255 35165 ft 539 kts 26°
2026-05-04 03:51 -24.49966 -50.61810 35166 ft 538 kts 26°
2026-05-04 03:51 -24.43677 -50.57380 35162 ft 538 kts 26°
2026-05-04 03:52 -24.37394 -50.52954 35165 ft 537 kts 25°
2026-05-04 03:52 -24.31111 -50.48536 35169 ft 537 kts 25°
2026-05-04 03:53 -24.24836 -50.44128 35172 ft 537 kts 25°
2026-05-04 03:53 -24.18555 -50.39721 35169 ft 537 kts 25°
2026-05-04 03:54 -24.12272 -50.35317 35178 ft 537 kts 25°
2026-05-04 03:54 -24.05976 -50.30907 35174 ft 539 kts 25°
2026-05-04 03:55 -23.99677 -50.26501 35168 ft 538 kts 25°
2026-05-04 03:55 -23.93378 -50.22110 35175 ft 538 kts 25°
2026-05-04 03:56 -23.87074 -50.17720 35165 ft 538 kts 25°
2026-05-04 03:56 -23.80772 -50.13335 35165 ft 538 kts 25°
2026-05-04 03:57 -23.74463 -50.08946 35171 ft 539 kts 25°
2026-05-04 03:57 -23.71310 -50.06749 35360 ft 539 kts 25°
2026-05-04 03:57 -23.68158 -50.04557 35573 ft 538 kts 25°
2026-05-04 03:57 -23.65003 -50.02367 35768 ft 539 kts 25°
2026-05-04 03:58 -23.58691 -49.97985 36150 ft 539 kts 25°
2026-05-04 03:58 -23.55531 -49.95792 36349 ft 539 kts 25°
2026-05-04 03:58 -23.52375 -49.93605 36552 ft 539 kts 25°
2026-05-04 03:59 -23.49216 -49.91416 36744 ft 539 kts 25°
2026-05-04 03:59 -23.46057 -49.89229 36965 ft 539 kts 25°
2026-05-04 03:59 -23.42899 -49.87043 37147 ft 539 kts 25°
2026-05-04 03:59 -23.39732 -49.84854 37176 ft 542 kts 25°
2026-05-04 04:00 -23.33389 -49.80467 37171 ft 539 kts 25°